{"data":{"norad_id":68362,"intl_designator":"2026-061C","name":"RASSVET-3 3","alt_names":[],"object_type":"PAYLOAD","status":"ACTIVE","operator":null,"country":"CIS","launch_date":"2026-03-23","launch_site_code":"PLMSC","launch_vehicle":null,"mission":null,"orbit_class":"UNKNOWN","rcs_meters":null,"size_class":null,"mass_kg":null,"dimensions":null,"purposes":[],"wikipedia_slug":null,"has_3d_model":false,"image_url":null,"decayed_at":null,"tle_current":{"epoch":"2026-09-19T01:00:15.338880Z","epoch_age_seconds":198234,"freshness":"STALE","line1":"1 68362U 26061C   26262.04184420  .00002382  00000+0  11430-3 0  9997","line2":"2 68362  82.2926 278.5135 0000538 288.7094  71.4080 15.18442256 27682","mean_motion":15.18442256,"eccentricity":5.38e-5,"inclination_deg":82.2926,"raan_deg":278.5135,"arg_perigee_deg":288.7094,"mean_anomaly_deg":71.408,"bstar":0.0001143,"rev_number":2768,"period_min":94.834031015006,"perigee_km":510.17730131134,"apogee_km":510.91852380793,"semimajor_km":6888.6849125596,"source":"CELESTRAK","updated_at":"2026-09-20T09:00:24.162003Z"}}}